Location: Newark
(34.0131°N, 4.3314°W)
Time: 02:52:53
(UTC+00:00)

Transit 2A Rocket - Pass Details

Date: 31 October 2019
Orbit: 594 x 909 km, 66.7° (Epoch: 16 November)

Event Time Altitude Azimuth Distance (km) Brightness Sun altitude
Rises 11:11:46 0° 342° (NNW) 2,837 7.5 40.5°
Reaches altitude 10° 11:14:07 10° 350° (N) 1,939 6.7 40.6°
Maximum altitude 11:18:10 38° 60° (ENE) 930 5.7 40.8°
Drops below altitude 10° 11:22:22 10° 129° (SE) 2,013 8.0 41.0°
Sets 11:24:50 0° 137° (SE) 2,960 8.7 41.1°
